This demonstration page uses our WeatherBlox Daily Observations layout. Learn more.

Left ArrowRight Arrow

39.12711, -84.51439

Hourly Observations for October 19, 2018

Temp ( °F °C ) Dew Point ( °F °C ) Humidity (%) Winds ( mph kmh ) Pressure ( in mb ) Visibility ( mi km ) Precip ( " mm )
12:53 am 00:53 Clear 36 2.2 36 2.2 100 100 N N/A 30.40 1030 10 16 N/A
1:20 am 01:20 Partly Cloudy with Mist and Fog 37 2.8 37 2.8 100 100 N N/A 30.42 1030 3 4 N/A
1:22 am 01:22 Mostly Cloudy with Mist and Fog 36 2.2 36 2.2 100 100 N N/A 30.42 1030 2 2 N/A
1:30 am 01:30 Mostly Cloudy with Fog 37 2.8 37 2.8 100 100 N N/A 30.42 1030 0 0 N/A
1:53 am 01:53 Mostly Cloudy with Fog 36 2.2 36 2.2 100 100 N N/A 30.40 1029 0 0 N/A
2:53 am 02:53 Mostly Cloudy with Fog 36 2.2 36 2.2 100 100 NE 3 6 30.38 1029 0 0 N/A
3:53 am 03:53 Mostly Cloudy with Fog 35 1.7 35 1.7 100 100 N N/A 30.37 1028 0 0 N/A
4:31 am 04:31 Mostly Cloudy with Fog 35 1.7 35 1.7 100 100 N N/A 30.39 1029 1 1 N/A
4:44 am 04:44 Mostly Cloudy with Fog 35 1.7 35 1.7 100 100 N N/A 30.39 1029 0 0 N/A
4:53 am 04:53 Mostly Cloudy with Fog 35 1.7 35 1.7 100 100 N N/A 30.37 1028 0 0 N/A
5:53 am 05:53 Mostly Cloudy with Fog 35 1.7 35 1.7 100 100 N N/A 30.36 1028 0 0 N/A
6:53 am 06:53 Mostly Cloudy with Fog 35 1.7 35 1.7 100 100 N N/A 30.36 1028 0 0 N/A
7:53 am 07:53 Mostly Cloudy with Fog 34 1.1 34 1.1 100 100 N N/A 30.34 1028 0 0 N/A
8:25 am 08:25 Cloudy with Mist and Fog 35 1.7 35 1.7 100 100 N N/A 30.36 1028 1 2 N/A
8:46 am 08:46 Mostly Cloudy with Mist and Fog 36 2.2 36 2.2 100 100 N N/A 30.36 1028 1 2 N/A
8:53 am 08:53 Mostly Cloudy with Mist and Fog 37 2.8 37 2.8 100 100 N N/A 30.32 1027 2 3 N/A
9:02 am 09:02 Partly Cloudy with Mist and Fog 37 2.8 37 2.8 100 100 N N/A 30.30 1026 4 6 N/A
9:53 am 09:53 Sunny 41 5 40 4.4 96 96 N N/A 30.31 1026 9 14 N/A
10:53 am 10:53 Sunny 48 8.9 41 5 77 77 SSW 5 7 30.29 1026 10 16 N/A
11:53 am 11:53 Sunny 53 11.7 41 5 64 64 SSW 5 7 30.25 1024 10 16 N/A
12:53 pm 12:53 Sunny 57 13.9 41 5 55 55 S 9 15 30.19 1022 10 16 N/A
1:53 pm 13:53 Sunny 60 15.6 41 5 50 50 SW 8 13 30.15 1021 10 16 N/A
2:53 pm 14:53 Cloudy 59 15 41 5 51 51 SW 8 13 30.11 1020 10 16 N/A
3:53 pm 15:53 Mostly Cloudy 58 14.4 42 5.6 56 56 SSW 7 11 30.06 1018 10 16 N/A
4:53 pm 16:53 Cloudy 57 13.9 47 8.3 69 69 S 5 7 30.04 1017 10 16 N/A
5:53 pm 17:53 Mostly Cloudy 56 13.3 48 8.9 75 75 SSW 5 7 30.02 1017 10 16 N/A
6:53 pm 18:53 Cloudy with Light Rain 56 13.3 48 8.9 75 75 SW 7 11 30.01 1016 10 16 N/A
7:53 pm 19:53 Cloudy 58 14.4 41 5 53 53 SW 16 26 30.00 1016 10 16 N/A
8:53 pm 20:53 Cloudy 57 13.9 41 5 55 55 WSW 12 19 30.01 1016 10 16 N/A
9:53 pm 21:53 Cloudy with Light Rain 50 10 48 8.9 93 93 WSW 12 19 30.03 1017 5 8 0.01 0.25
10:53 pm 22:53 Cloudy with Light Rain 50 10 48 8.9 93 93 SW 13 20 30.01 1016 10 16 0.03 0.76
11:26 pm 23:26 Cloudy 50 10 48 8.9 93 93 WSW 9 15 30.00 1016 8 13 N/A
11:36 pm 23:36 Cloudy 50 10 48 8.9 93 93 SW 10 17 29.97 1015 10 16 N/A
11:53 pm 23:53 Cloudy 50 10 49 9.4 96 96 WSW 13 20 29.98 1015 10 16 N/A

Powered by AerisWeather